Simultaneous Nadir Overpasses (SNOs) Predictions

Prediction of SNOs between GOES-16 and FY3D Satellite Orbit:

Table of predicted SNOs for the next 14.0 days since TLE Epoch: 8/17/2024
Index Date Time (GOES-16) GOES-16 Lat,Lon FY3D Lat,Lon Distance(km) Time Diff (sec)
1 08/17/2024 07:39:13 0.05, -75.21 0.04, -75.30 10.37 80
2 08/19/2024 19:40:07 -0.04, -75.21 -0.25, -76.11 102.47 80
3 08/20/2024 19:24:11 -0.04, -75.22 0.79, -71.60 412.64 80
4 08/22/2024 07:43:32 0.03, -75.24 0.41, -76.89 187.61 80
5 08/23/2024 07:27:36 0.03, -75.25 -0.64, -72.38 328.02 80
6 08/24/2024 19:47:05 -0.03, -75.26 -0.57, -77.70 277.63 80
7 08/25/2024 19:31:09 -0.03, -75.28 0.43, -73.18 238.21 80
8 08/27/2024 07:50:29 0.02, -75.30 0.74, -78.47 361.20 80
9 08/28/2024 07:31:53 0.02, -75.32 -0.27, -73.96 154.79 80
10 08/29/2024 19:54:02 -0.00, -75.33 -0.91, -79.28 450.30 80
11 08/30/2024 19:38:06 0.00, -75.35 0.11, -74.77 66.26 80
